Home   Weather   Washington County   Past weeks
Flag for USA

Past Weather in Washington County, Illinois, USA — Yesterday and Last 2 Weeks

Now
55 °F

Passing clouds.


Feels Like: 50 °F
Forecast: 56 / 44 °F
Wind: 20 mph from Northwest

Location: Lambert-St. Louis International Airport

Current Time: Oct 15, 2019 at 11:48:37 pm

Latest Report: Oct 15, 2019 at 10:51 pm


Visibility: 10 mi

Pressure: 29.95 "Hg

Humidity: 49%

Dew Point: 36 °F

Location of Washington CountyLocation

Past Weather in Washington County — Graph

°F

Washington County Temperature Yesterday

Maximum temperature yesterday: 70 °F (at 2:51 pm)
Minimum temperature yesterday: 43 °F (at 4:51 am)
Average temperature yesterday: 56 °F

High & Low Weather Summary for the Past Weeks

 TemperatureHumidityPressure
High93 °F (Oct 1, 2:51 pm)93% (Oct 11, 2:32 am)30.35 "Hg (Oct 11, 2:32 am)
Low36 °F (Oct 12, 3:51 am)26% (Oct 14, 2:51 pm)29.81 "Hg (Oct 15, 4:51 pm)
Average63 °F64%30.04 "Hg
* Reported Sep 30 9:51 pm — Oct 15 9:51 pm, Washington County. Weather by CustomWeather, © 2019

Note: Actual official high and low records may vary slightly from our data, if they occured in-between our weather recording intervals... More about our weather records

Advertising

Washington County Weather History for the Previous 24 Hours

Scroll right to see more
 ConditionsComfort  
Time TempWeatherWind HumidityBarometerVisibility
9:51 pm
Tue, Oct 15
59 °FPassing clouds.16 mph51%29.92 "Hg10 mi
8:51 pm62 °FPartly cloudy.15 mph44%29.89 "Hg10 mi
7:51 pm64 °FPassing clouds.8 mph75%29.86 "Hg10 mi
6:51 pm66 °FPassing clouds.8 mph73%29.84 "Hg10 mi
5:51 pm68 °FCloudy.8 mph70%29.83 "Hg10 mi
5:24 pm70 °FMostly cloudy.14 mph66%29.84 "Hg10 mi
4:51 pm71 °FBroken clouds.9 mph66%29.81 "Hg10 mi
3:51 pm71 °FPartly sunny.12 mph68%29.83 "Hg10 mi
3:33 pm71 °FBroken clouds.10 mph68%29.84 "Hg10 mi
3:09 pm69 °FMostly cloudy.12 mph73%29.84 "Hg10 mi
2:51 pm70 °FOvercast.10 mph71%29.83 "Hg10 mi
2:23 pm70 °FMore clouds than sun.9 mph68%29.84 "Hg10 mi
1:51 pm68 °FOvercast.8 mph73%29.83 "Hg10 mi
12:51 pm68 °FMostly cloudy.9 mph70%29.85 "Hg10 mi
11:51 am66 °FOvercast.12 mph73%29.88 "Hg10 mi
10:51 am62 °FOvercast.8 mph75%29.90 "Hg10 mi
9:51 am60 °FOvercast.8 mph75%29.92 "Hg10 mi
8:51 am59 °FOvercast.7 mph75%29.92 "Hg10 mi
7:58 am57 °FMostly cloudy.5 mph74%29.93 "Hg10 mi
6:51 am57 °FPassing clouds.7 mph69%29.92 "Hg10 mi
5:51 am56 °FPassing clouds.7 mph70%29.92 "Hg10 mi
4:51 am57 °FPassing clouds.8 mph67%29.92 "Hg10 mi
3:51 am55 °FPassing clouds.5 mph69%29.95 "Hg10 mi
2:51 am55 °FClear.6 mph69%29.96 "Hg10 mi
1:51 am56 °FClear.7 mph67%29.97 "Hg10 mi
12:51 am56 °FClear.6 mph67%29.98 "Hg10 mi
11:51 pm
Mon, Oct 14
55 °FClear.6 mph67%30.01 "Hg10 mi
Weather by CustomWeather, © 2019

See weather overview